Weather History for KHFF - April, 2014

Change the Weather History Date:

Friday, April 25, 2014

  Actual Average Record
Temperature  
Mean Temperature 66 °F -  
Max Temperature 83 °F 73 °F 87 °F (2006)
Min Temperature 49 °F 53 °F 42 °F (2001)
Growing Degree Days 16 (Base 50)    
Moisture  
Dew Point 56 °F    
Average Humidity 67    
Maximum Humidity 96    
Minimum Humidity 37    
Precipitation  
Precipitation 0.00 in - - ()
Sea Level Pressure  
Sea Level Pressure 29.86 in    
Wind  
Wind Speed 8 mph (SSW)    
Max Wind Speed 30 mph    
Max Gust Speed 37 mph    
Visibility 12 miles    
Events      
Averages and records for this station are not official NWS values.
T = Trace of Precipitation, MM = Missing Value Source: NWS Daily Summary

Daily Weather History Graph

Daily Weather History Graph

Search for Another Location

Airport or City:

Trip Planner

Search our weather history database for the weather conditions in past years. The results will help you decide how hot, cold, wet, or windy it might be!

Date:

Astronomy

Apr. 25, 2014 Rise Set
Actual Time 6:33 AM EDT 7:58 PM EDT
Civil Twilight 6:07 AM EDT 8:25 PM EDT
Nautical Twilight 5:35 AM EDT 8:57 PM EDT
Astronomical Twilight 5:01 AM EDT 9:30 PM EDT
Moon 4:11 AM EDT (4/25) 4:27 PM EDT (4/25)
Length of Visible Light 14h 18m
Length of Day
13h 24m
Waning Crescent, 15% of the Moon is Illuminated
Apr 25
Waning Crescent
Apr 29
New
May 6
First Quarter
May 14
Full
May 21
Last Quarter

Hourly Weather History & Observations

Time (EDT) Temp. Heat Index Dew Point Humidity Pressure Visibility Wind Dir Wind Speed Gust Speed Precip Events Conditions
12:56 AM 51.6 °F - 47.5 °F 86% 30.01 in 12.0 mi East 2.3 mph - N/A   Clear
1:56 AM 51.8 °F - 48.4 °F 88% 30.00 in 12.0 mi SSE 2.3 mph - N/A   Clear
2:56 AM 50.4 °F - 47.5 °F 90% 29.99 in 12.0 mi SE 1.2 mph - N/A   Clear
3:56 AM 49.6 °F - 47.5 °F 92% 29.98 in 12.0 mi ESE 1.2 mph - N/A   Clear
4:56 AM 50.2 °F - 48.0 °F 92% 29.97 in 12.0 mi SSE 1.2 mph - N/A   Clear
5:56 AM 49.1 °F - 47.5 °F 94% 29.98 in 12.0 mi North 1.2 mph - N/A   Clear
6:56 AM 49.5 °F - 48.4 °F 96% 29.95 in 10.0 mi Variable 1.2 mph - N/A   Clear
7:56 AM 54.1 °F - 52.2 °F 93% 29.94 in 11.0 mi SSE 3.5 mph - N/A   Partly Cloudy
8:56 AM 63.3 °F - 59.0 °F 86% 29.94 in 12.0 mi SSE 3.5 mph - N/A   Partly Cloudy
9:56 AM 71.1 °F - 61.9 °F 73% 29.91 in 12.0 mi South 10.4 mph - N/A   Clear
10:44 AM 75.2 °F - 62.6 °F 65% 29.90 in 12.0 mi SW 13.8 mph 20.7 mph N/A   Partly Cloudy
10:56 AM 75.7 °F - 63.3 °F 65% 29.89 in 12.0 mi South 20.7 mph 25.3 mph N/A   Partly Cloudy
11:22 AM 78.8 °F - 64.4 °F 61% 29.88 in 12.0 mi South 18.4 mph 25.3 mph N/A   Mostly Cloudy
11:56 AM 78.4 °F - 63.0 °F 59% 29.87 in 12.0 mi SSW 16.1 mph 27.6 mph N/A   Mostly Cloudy
12:01 PM 78.8 °F - 62.6 °F 57% 29.87 in 12.0 mi South 18.4 mph 24.2 mph N/A   Mostly Cloudy
12:56 PM 79.3 °F - 62.8 °F 57% 29.83 in 12.0 mi South 18.4 mph 26.5 mph N/A   Mostly Cloudy
1:56 PM 80.8 °F 81.6 °F 61.3 °F 51% 29.78 in 12.0 mi South 24.2 mph 32.2 mph N/A   Scattered Clouds
2:56 PM 82.9 °F 82.1 °F 55.8 °F 39% 29.75 in 12.0 mi SSW 29.9 mph 36.8 mph N/A   Scattered Clouds
3:31 PM 82.4 °F 81.7 °F 55.4 °F 39% 29.73 in 12.0 mi SW 17.3 mph 35.7 mph N/A   Scattered Clouds
3:56 PM 82.0 °F 81.2 °F 53.6 °F 37% 29.72 in 12.0 mi SW 24.2 mph 34.5 mph N/A   Mostly Cloudy
4:56 PM 81.3 °F 80.9 °F 55.0 °F 40% 29.71 in 12.0 mi SSW 19.6 mph 33.4 mph N/A   Mostly Cloudy
5:56 PM 80.2 °F 80.3 °F 55.4 °F 42% 29.73 in 12.0 mi WSW 17.3 mph 29.9 mph N/A   Scattered Clouds
6:56 PM 78.1 °F - 56.5 °F 47% 29.73 in 12.0 mi NW 16.1 mph 24.2 mph N/A   Mostly Cloudy
6:59 PM 77.0 °F - 57.2 °F 50% 29.74 in 12.0 mi NW 16.1 mph 24.2 mph N/A   Mostly Cloudy
7:56 PM 71.2 °F - 54.9 °F 56% 29.78 in 12.0 mi NW 8.1 mph 17.3 mph N/A   Mostly Cloudy
8:56 PM 70.2 °F - 55.0 °F 59% 29.80 in 12.0 mi NW 6.9 mph - N/A   Mostly Cloudy
9:56 PM 68.0 °F - 55.4 °F 64% 29.84 in 12.0 mi WNW 5.8 mph - N/A   Partly Cloudy
10:56 PM 62.8 °F - 54.5 °F 74% 29.86 in 12.0 mi NW 3.5 mph - N/A   Clear
11:56 PM 58.8 °F - 54.3 °F 85% 29.87 in 12.0 mi North 1.2 mph - N/A   Clear